This is the latest recevied weather packets stored in our database for station/object IZ6EGX-13. If no packets are shown the sender has not sent any weather packets the latest 10 day(s).
| Time | Temp. | Humidity | Pressure | Rain* | Wind** | Luminosity | Snow |
|---|---|---|---|---|---|---|---|
| 1777391780 | 18.89° C | 61% | 1014.8 hPa | 0 mm | - | - | - |
| 1777391180 | 18.89° C | 61% | 1014.7 hPa | 0 mm | - | - | - |
| 1777390580 | 18.89° C | 63% | 1014.8 hPa | 0 mm | - | - | - |
| 1777389980 | 18.89° C | 65% | 1014.8 hPa | 0 mm | - | - | - |
| 1777389380 | 19.44° C | 64% | 1014.5 hPa | 0 mm | - | - | - |
| 1777388780 | 19.44° C | 61% | 1014.4 hPa | 0 mm | - | - | - |
| 1777388180 | 19.44° C | 60% | 1014.3 hPa | 0 mm | - | - | - |
| 1777387580 | 20° C | 55% | 1014.4 hPa | 0 mm | - | - | - |
| 1777386980 | 20.56° C | 53% | 1014.4 hPa | 0 mm | - | - | - |
| 1777386380 | 20° C | 50% | 1014.5 hPa | 0 mm | - | - | - |
| 1777385780 | 20.56° C | 50% | 1014.4 hPa | 0 mm | - | - | - |
| 1777385180 | 20° C | 52% | 1014.5 hPa | 0 mm | - | - | - |
| 1777384580 | 20.56° C | 55% | 1014.5 hPa | 0 mm | - | - | - |
| 1777383980 | 21.11° C | 56% | 1014.5 hPa | 0 mm | - | - | - |
| 1777383380 | 21.11° C | 60% | 1014.6 hPa | 0 mm | - | - | - |
| 1777382780 | 21.11° C | 58% | 1014.7 hPa | 0 mm | - | - | - |
| 1777382179 | 21.11° C | 56% | 1014.7 hPa | 0 mm | - | - | - |
| 1777381579 | 21.67° C | 57% | 1014.7 hPa | 0 mm | - | - | - |
| 1777380979 | 21.67° C | 58% | 1014.7 hPa | 0 mm | - | - | - |
| 1777380379 | 21.67° C | 58% | 1014.7 hPa | 0 mm | - | - | - |
| 1777379779 | 21.67° C | 60% | 1014.7 hPa | 0 mm | - | - | - |
| 1777379179 | 21.67° C | 60% | 1014.8 hPa | 0 mm | - | - | - |
| 1777378579 | 21.11° C | 60% | 1014.8 hPa | 0 mm | - | - | - |
| 1777377979 | 21.67° C | 58% | 1014.8 hPa | 0 mm | - | - | - |
| 1777377379 | 22.22° C | 57% | 1014.9 hPa | 0 mm | - | - | - |
* Rain latest hour (hover to see other rain measurements)
** Current wind speed in m/s (hover to see current wind gust speed)